Flag for Greece Weather past 2 weeks in Chania, Crete, Greece

Now
75 °F

Clear.


Feels Like: 75 °F
Forecast: 69 / 95 °F
Wind: 5 mph from Northwest

Location: Souda Airport

Current Time: Aug 28, 2014 at 12:50:45 AM

Latest Report: Aug 27, 2014 at 11:50 PM


Visibility: 10 mi

Pressure: 29.80 "Hg

Humidity: 89%

Dew point: 72 °F

Location of ChaniaLocation

Historic Weather in Chania — Graph

°F

Chania temperature yesterday

Maximum temperature yesterday: 93 °F (at 4:20 PM)
Minimum temperature yesterday: 72 °F (at 2:50 AM)
Average temperature yesterday: 81 °F

Past Weeks' High & Low Weather Summary

 TemperatureHumidityPressure
High99 °F (Aug 15, 1:50 PM)89% (Aug 14, 2:50 AM)30.01 "Hg (Aug 14, 2:50 AM)
Low66 °F (Aug 20, 6:50 AM)16% (Aug 21, 1:50 PM)29.71 "Hg (Aug 17, 6:50 PM)
Average82 °F52%29.88 "Hg
* Reported Aug 12 11:20 PM — Aug 27 11:20 PM, Chania, Weather by CustomWeather, © 2014

Note: Actual official high and low records may vary slightly from our data, if they occured in-between our weather recording intervals... More about our weather records

Advertising

Chania weather history for previous 24 hours

 ConditionsComfort  
Time TempWeatherWind HumidityBarometerVisibility
11:20 PM
Aug 27
75 °FClear.5 mph83%29.80 "Hg10 mi
10:50 PM75 °FClear.5 mph83%29.80 "Hg10 mi
10:20 PM77 °FClear.6 mph79%29.80 "Hg10 mi
9:50 PM77 °FClear.5 mph79%29.80 "Hg10 mi
8:50 PM79 °FSunny.No wind74%29.80 "Hg10 mi
8:20 PM79 °FSunny.5 mph70%29.80 "Hg10 mi
7:50 PM82 °FSunny.No wind62%29.80 "Hg10 mi
7:20 PM84 °FSunny.No wind58%29.80 "Hg10 mi
6:50 PM86 °FSunny.No wind49%29.80 "Hg10 mi
5:20 PM90 °FSunny.No wind29%29.80 "Hg10 mi
4:50 PM91 °FSunny.6 mph30%29.83 "Hg10 mi
4:20 PM93 °FSunny.5 mph24%29.83 "Hg10 mi
3:50 PM91 °FSunny.8 mph26%29.83 "Hg10 mi
3:20 PM91 °FSunny.7 mph26%29.83 "Hg10 mi
2:50 PM91 °FSunny.8 mph30%29.83 "Hg10 mi
2:20 PM91 °FSunny.9 mph26%29.86 "Hg10 mi
1:50 PM91 °FSunny.7 mph26%29.86 "Hg10 mi
1:20 PM90 °FSunny.7 mph24%29.86 "Hg10 mi
12:50 PM90 °FSunny.9 mph27%29.86 "Hg10 mi
12:20 PM90 °FSunny.6 mph36%29.86 "Hg10 mi
11:50 AM91 °FSunny.6 mph38%29.86 "Hg10 mi
11:20 AM90 °FSunny.5 mph38%29.86 "Hg10 mi
10:50 AM88 °FSunny.5 mph40%29.86 "Hg10 mi
10:20 AM86 °FSunny.No wind40%29.86 "Hg10 mi
9:50 AM84 °FSunny.No wind43%29.86 "Hg10 mi
9:20 AM82 °FSunny.No wind48%29.86 "Hg10 mi
8:50 AM79 °FSunny.No wind61%29.86 "Hg10 mi
8:20 AM73 °FSunny.No wind78%29.86 "Hg10 mi
7:50 AM73 °FClear.No wind78%29.86 "Hg10 mi
6:50 AM72 °FPassing clouds.No wind73%29.86 "HgN/A
6:20 AM72 °FPassing clouds.No wind73%29.86 "HgN/A
5:50 AM72 °FPassing clouds.No wind73%29.86 "HgN/A
5:20 AM72 °FPassing clouds.No wind88%29.86 "HgN/A
4:50 AM72 °FPassing clouds.No wind88%29.86 "HgN/A
4:20 AM72 °FPassing clouds.No wind88%29.86 "HgN/A
3:50 AM72 °FPassing clouds.No wind88%29.86 "HgN/A
2:50 AM72 °FPassing clouds.5 mph88%29.86 "HgN/A
2:20 AM73 °FPassing clouds.5 mph89%29.89 "HgN/A
1:50 AM73 °FPassing clouds.5 mph89%29.89 "HgN/A
1:20 AM75 °FPassing clouds.5 mph83%29.89 "HgN/A
12:50 AM75 °FPassing clouds.5 mph83%29.89 "HgN/A
12:20 AM75 °FPassing clouds.5 mph89%29.89 "HgN/A
Weather by CustomWeather, © 2014

See weather overviewHow to use our weather pages